This demonstration page uses our WeatherBlox Daily Observations layout. Learn more.

Left ArrowRight Arrow

38.20091, -84.87328

Hourly Observations for January 17, 2015

Temp ( °F °C ) Dew Point ( °F °C ) Humidity (%) Winds ( mph kmh ) Pressure ( in mb ) Visibility ( mi km ) Precip ( " mm )
12:53 am 00:53 Clear with Mist and Fog 28 -2.2 24 -4.4 85 85 ESE 5 7 30.18 1022 6 10 0.00 0.00
1:53 am 01:53 Clear with Mist and Fog 26 -3.3 23 -5 88 88 Calm 30.17 1022 5 8 0.00 0.00
2:53 am 02:53 Clear with Mist and Fog 26 -3.3 23 -5 88 88 Calm 30.16 1022 4 6 0.00 0.00
3:53 am 03:53 Clear with Mist and Fog 29 -1.7 25 -3.9 85 85 S 5 7 30.16 1021 6 10 0.00 0.00
4:53 am 04:53 Clear 29 -1.7 25 -3.9 85 85 SE 3 6 30.14 1021 7 11 0.00 0.00
5:53 am 05:53 Clear 28 -2.2 24 -4.4 85 85 S 5 7 30.14 1021 9 14 0.00 0.00
6:53 am 06:53 Clear 29 -1.7 24 -4.4 82 82 Calm 30.13 1020 10 16 0.00 0.00
7:53 am 07:53 Clear 28 -2.2 24 -4.4 85 85 S 5 7 30.11 1020 8 13 0.00 0.00
8:53 am 08:53 Sunny 34 1.1 28 -2.2 79 79 S 10 17 30.11 1020 10 16 0.00 0.00
9:53 am 09:53 Sunny 38 3.3 29 -1.7 70 70 S 9 15 30.11 1020 10 16 0.00 0.00
10:53 am 10:53 Sunny 45 7.2 30 -1.1 56 56 SSW 13 20 30.11 1020 10 16 0.00 0.00
11:53 am 11:53 Sunny 49 9.4 29 -1.7 46 46 SSW 17 28 30.07 1018 10 16 0.00 0.00
12:53 pm 12:53 Sunny 51 10.6 28 -2.2 41 41 SW 20 31 30.03 1017 10 16 0.00 0.00
1:53 pm 13:53 Sunny 53 11.7 29 -1.7 40 40 SSW 17 28 29.99 1016 10 16 0.00 0.00
2:53 pm 14:53 Sunny 54 12.2 27 -2.8 35 35 SW 17 28 29.96 1015 10 16 0.00 0.00
3:53 pm 15:53 Sunny 54 12.2 27 -2.8 35 35 SSW 16 26 29.94 1014 10 16 0.00 0.00
4:53 pm 16:53 Sunny 52 11.1 26 -3.3 37 37 SSW 14 22 29.93 1013 10 16 0.00 0.00
5:53 pm 17:53 Clear 49 9.4 26 -3.3 41 41 SSW 12 19 29.93 1013 10 16 0.00 0.00
6:53 pm 18:53 Clear 49 9.4 26 -3.3 41 41 S 12 19 29.92 1013 10 16 0.00 0.00
7:53 pm 19:53 Clear 47 8.3 25 -3.9 42 42 S 12 19 29.89 1012 10 16 0.00 0.00
8:53 pm 20:53 Clear 46 7.8 24 -4.4 42 42 S 10 17 29.89 1012 10 16 0.00 0.00
9:53 pm 21:53 Clear 49 9.4 25 -3.9 39 39 SSW 15 24 29.88 1012 10 16 0.00 0.00
10:53 pm 22:53 Clear 47 8.3 26 -3.3 44 44 SSW 10 17 29.89 1012 10 16 0.00 0.00
11:53 pm 23:53 Cloudy 48 8.9 27 -2.8 44 44 SSW 14 22 29.87 1012 10 16 0.00 0.00

Powered by AerisWeather